Change the Weather History Date:

Sunday, November 18, 2012

  Actual Average Record
Temperature  
Mean Temperature 75 °F -  
Max Temperature 87 °F 87 °F 93 °F (2008)
Min Temperature 63 °F 67 °F 63 °F (2012)
Cooling Degree Days 10    
Growing Degree Days 25 (Base 50)    
Moisture  
Dew Point 71 °F    
Average Humidity 83    
Maximum Humidity 100    
Minimum Humidity 62    
Precipitation  
Precipitation 0.00 in - - ()
Sea Level Pressure  
Sea Level Pressure 29.95 in    
Wind  
Wind Speed 1 mph ()    
Max Wind Speed 12 mph    
Max Gust Speed -    
Visibility 5.0 miles    
Events      
Averages and records for this station are not official NWS values.
T = Trace of Precipitation, MM = Missing Value Source: Averaged Metar Reports

Daily Weather History Graph

Daily Weather History Graph

Search for Another Location

Airport or City:

Trip Planner

Search our weather history database for the weather conditions in past years. The results will help you decide how hot, cold, wet, or windy it might be!

Date:

Astronomy

Nov. 18, 2012 Rise Set
Actual Time 6:04 AM CST 5:32 PM CST
Civil Twilight 5:42 AM CST 5:54 PM CST
Nautical Twilight 5:16 AM CST 6:20 PM CST
Astronomical Twilight 4:50 AM CST 6:46 PM CST
Moon 10:41 AM CST 10:37 PM CST
Length of Visible Light 12h 12m
Length of Day
11h 27m
Waxing Crescent, 30% of the Moon is Illuminated
Nov 18
Waxing Crescent
Nov 20
First Quarter
Nov 28
Full
Dec 6
Last Quarter
Dec 13
New

Hourly Weather History & Observations

Time (CST) Temp. Heat Index Dew Point Humidity Pressure Visibility Wind Dir Wind Speed Gust Speed Precip Events Conditions
12:00 AM 71.6 °F - 68.0 °F 88% 29.95 in - Calm Calm - N/A   Clear
1:00 AM 69.8 °F - 68.0 °F 94% 29.95 in - Calm Calm - N/A   Clear
2:00 AM 68.0 °F - 64.4 °F 88% 29.95 in - Calm Calm - N/A   Clear
3:00 AM 66.2 °F - 64.4 °F 94% 29.92 in - Calm Calm - N/A   Clear
4:00 AM 66.2 °F - 64.4 °F 94% 29.95 in - Calm Calm - N/A   Clear
5:00 AM 66.2 °F - 62.6 °F 88% 29.95 in - Calm Calm - N/A   Clear
6:00 AM 64 °F - 63 °F 94% 29.96 in 25 mi Calm Calm - -  
6:00 AM 64.4 °F - 62.6 °F 94% 29.95 in - Calm Calm - N/A   Clear
7:00 AM 64.4 °F - 64.4 °F 100% 29.98 in - Calm Calm - N/A   Clear
8:00 AM 73.4 °F - 69.8 °F 88% 29.98 in - Calm Calm - N/A   Clear
9:00 AM 82.4 °F 87.2 °F 71.6 °F 70% 30.01 in - Calm Calm - N/A   Clear
10:00 AM 87.8 °F 95.6 °F 73.4 °F 62% 30.01 in - Calm Calm - N/A   Clear
11:00 AM 86.0 °F 93.4 °F 73.4 °F 66% 29.98 in - SSW 6.9 mph - N/A   Clear
12:00 PM 87.8 °F 97.6 °F 75.2 °F 66% 29.95 in - SSW 6.9 mph - N/A   Clear
1:00 PM 86.0 °F 95.1 °F 75.2 °F 70% 29.92 in 5.0 mi SSW 9.2 mph - N/A   Clear
2:00 PM 86.0 °F 95.1 °F 75.2 °F 70% 29.89 in 5.0 mi SSW 11.5 mph - N/A   Partly Cloudy
3:00 PM 86.0 °F 93.4 °F 73.4 °F 66% 29.89 in 5.0 mi SSW 11.5 mph - N/A   Partly Cloudy
4:00 PM 86.0 °F 95.1 °F 75.2 °F 70% 29.89 in 5.0 mi SSW 6.9 mph - N/A   Clear
5:00 PM 84.2 °F 92.3 °F 75.2 °F 74% 29.89 in 5.0 mi SW 4.6 mph - N/A   Clear
6:00 PM 80.6 °F 85.4 °F 73.4 °F 79% 29.92 in 5.0 mi Calm Calm - N/A   Clear
7:00 PM 80.6 °F 86.2 °F 75.2 °F 84% 29.92 in - Calm Calm - N/A   Clear
8:00 PM 78.8 °F - 75.2 °F 89% 29.95 in - Calm Calm - N/A   Clear
9:00 PM 78.8 °F - 75.2 °F 89% 29.98 in - Calm Calm - N/A   Clear
10:00 PM 77.0 °F - 75.2 °F 94% 29.98 in - Calm Calm - N/A   Clear
11:00 PM 75.2 °F - 73.4 °F 94% 29.98 in - Calm Calm - N/A   Clear